FW1093 Weather Reports


Display with metric or nautical units.
time (UTC)temp
F
wind
direction
speed
MPH
gust
MPH
rain 1hr
in
rain 24hr
in
rain mn
in
humidity
%
barometer
mb
20260504070313 35 272 0.0 0.0 0.00 0.00 0.00 85 1012.3
20260504050334 37 272 0.0 0.0 0.00 0.00 0.00 81 1012.3
20260504045327 37 272 0.0 0.0 0.00 0.00 0.00 81 1012.4
20260504044321 38 272 0.0 0.0 0.00 0.00 0.00 80 1012.4
20260504042313 38 272 0.0 0.0 0.00 0.00 0.00 78 1012.3
20260504041326 38 272 0.0 0.0 0.00 0.00 0.00 77 1012.3
20260504040318 39 272 0.0 0.0 0.00 0.00 0.00 75 1012.3
20260504035326 39 272 0.0 0.0 0.00 0.00 0.00 74 1012.2
20260504034324 40 272 0.0 1.0 0.00 0.00 0.00 73 1012.1
20260504033318 40 272 0.0 0.0 0.00 0.00 0.00 72 1012.1
20260504032338 40 272 0.0 0.0 0.00 0.00 0.00 69 1012.1
20260504031335 41 272 0.0 0.0 0.00 0.00 0.00 71 1012.0
20260504030331 41 272 0.0 0.0 0.00 0.00 0.00 67 1012.1
20260504025325 41 272 0.0 0.0 0.00 0.00 0.00 69 1011.9
20260504024346 42 272 0.0 0.0 0.00 0.00 0.00 67 1012.0
20260504023317 42 272 0.0 0.0 0.00 0.00 0.00 65 1011.9
20260504022337 42 272 0.0 0.0 0.00 0.00 0.00 65 1012.0
20260504021331 43 272 0.0 0.0 0.00 0.00 0.00 64 1012.0
20260504020326 43 272 0.0 0.0 0.00 0.00 0.00 62 1011.9
20260504015318 44 272 0.0 0.0 0.00 0.00 0.00 62 1011.9
20260504014314 44 272 0.0 0.0 0.00 0.00 0.00 61 1011.9
20260504013334 45 272 0.0 0.0 0.00 0.00 0.00 55 1011.8
20260504012326 46 272 0.0 0.0 0.00 0.00 0.00 58 1011.6
20260504011323 46 272 0.0 0.0 0.00 0.00 0.00 54 1011.5
20260504010314 47 272 0.0 0.0 0.00 0.00 0.00 53 1011.3
20260504005335 48 272 0.0 0.0 0.00 0.00 0.00 55 1011.1
20260504004329 48 272 0.0 0.0 0.00 0.00 0.00 55 1011.0
20260504003321 49 272 0.0 0.0 0.00 0.00 0.00 49 1010.9
20260504002314 49 272 0.0 0.0 0.00 0.00 0.00 47 1010.8
20260504001335 50 272 0.0 0.0 0.00 0.00 0.00 47 1010.6
20260504000329 50 272 0.0 0.0 0.00 0.00 0.00 48 1010.5
20260503235350 51 272 0.0 0.0 0.00 0.00 0.00 41 1010.3
20260503234348 52 272 0.0 0.0 0.00 0.00 0.00 43 1010.1
20260503233321 53 272 0.0 0.0 0.00 0.00 0.00 43 1010.1
20260503232343 54 272 0.0 1.0 0.00 0.00 0.00 37 1010.0
20260503231315 55 20 0.0 4.0 0.00 0.00 0.00 33 1009.9
20260503230335 56 314 1.0 5.0 0.00 0.00 0.00 33 1009.9
20260503225333 56 337 0.0 2.0 0.00 0.00 0.00 32 1009.7
20260503224325 56 276 1.0 6.0 0.00 0.00 0.00 34 1009.7
20260503223321 57 254 2.0 3.0 0.00 0.00 0.00 34 1009.8
20260503222315 58 287 1.0 5.0 0.00 0.00 0.00 32 1009.7
20260503221356 58 208 1.0 6.0 0.00 0.00 0.00 32 1009.5
20260503220329 59 267 2.0 6.0 0.00 0.00 0.00 32 1009.7
20260503215320 58 313 1.0 6.0 0.00 0.00 0.00 33 1009.6
20260503214315 58 312 1.0 4.0 0.00 0.00 0.00 32 1009.6
20260503213336 57 20 2.0 6.0 0.00 0.00 0.00 35 1009.5
20260503212328 57 327 2.0 4.0 0.00 0.00 0.00 33 1009.6
20260503211320 57 293 1.0 6.0 0.00 0.00 0.00 35 1009.6
20260503210313 57 345 1.0 7.0 0.00 0.00 0.00 35 1009.6
20260503205331 57 267 3.0 6.0 0.00 0.00 0.00 35 1009.8
20260503204325 56 282 1.0 6.0 0.00 0.00 0.00 35 1009.8
20260503203320 55 338 3.0 7.0 0.00 0.00 0.00 35 1009.8
20260503202343 55 325 3.0 7.0 0.00 0.00 0.00 35 1009.8
20260503201315 55 359 2.0 8.0 0.00 0.00 0.00 39 1009.7
20260503200351 55 232 3.0 6.0 0.00 0.00 0.00 36 1009.8
20260503195320 56 10 1.0 6.0 0.00 0.00 0.00 38 1009.8
20260503194321 55 310 2.0 10.0 0.00 0.00 0.00 39 1009.8
20260503193341 53 319 2.0 8.0 0.00 0.00 0.00 37 1009.9
20260503192314 53 360 2.0 6.0 0.00 0.00 0.00 40 1010.0
20260503191333 53 339 2.0 6.0 0.00 0.00 0.00 39 1009.9
20260503190329 54 274 2.0 6.0 0.00 0.00 0.00 38 1009.8
20260503185319 54 338 4.0 8.0 0.00 0.00 0.00 37 1010.2
20260503184339 54 18 3.0 8.0 0.00 0.00 0.00 37 1010.0
20260503183327 54 189 3.0 6.0 0.00 0.00 0.00 38 1009.9
20260503182322 55 241 3.0 8.0 0.00 0.00 0.00 38 1009.9
20260503181314 53 199 2.0 14.0 0.00 0.00 0.00 37 1009.8
20260503180334 54 94 2.0 6.0 0.00 0.00 0.00 40 1009.9
20260503175326 53 360 2.0 8.0 0.00 0.00 0.00 38 1009.9
20260503174317 52 41 1.0 6.0 0.00 0.00 0.00 41 1009.9
20260503173337 52 251 2.0 6.0 0.00 0.00 0.00 38 1010.0
20260503172330 53 10 2.0 5.0 0.00 0.00 0.00 42 1010.0
20260503171346 51 274 2.0 7.0 0.00 0.00 0.00 46 1010.0
20260503170317 50 8 1.0 8.0 0.00 0.00 0.00 46 1010.0
20260503150328 48 238 2.0 12.0 0.00 0.00 0.00 55 1010.4
20260503131323 45 333 2.0 10.0 0.00 0.00 0.00 62 1010.3
20260503130346 44 293 3.0 11.0 0.00 0.00 0.00 62 1010.4
20260503110315 39 283 0.0 2.0 0.00 0.02 0.00 73 1010.1
20260503090323 40 321 0.0 6.0 0.00 0.03 0.00 68 1009.8
20260503081328 40 347 0.0 3.0 0.00 0.05 0.00 66 1010.1
20260503080339 41 335 0.0 3.0 0.00 0.05 0.00 67 1010.1
20260503072345 42 217 0.0 1.0 0.00 0.05 0.00 64 1010.3
20260503071317 42 282 0.0 2.0 0.00 0.05 0.00 64 1010.3